• En España
  • Lista de países
  • Para 7 días
  • Temperatura del agua
  • Mapa Satelital
  • El tiempo en el mapa
  • Informadores
  • user-avatar
    Iniciar sesión

    Tiempo cada hora Dobczyce

    Hoy, 25 Junio, Lunes

    Tiempo Temperatura Precipitaciones Viento Presión Humedad
    00:00 +10°C° 0,1 mm 2 mps 740 mmHg 94%
    01:00 +11°C° 0 mm 1 mps 740 mmHg 95%
    02:00 +11°C° 0 mm 1 mps 740 mmHg 95%
    03:00 +11°C° 0 mm 1 mps 740 mmHg 95%
    04:00 +11°C° 0 mm 1 mps 741 mmHg 95%
    05:00 +12°C° 0 mm 1 mps 741 mmHg 92%
    06:00 +13°C° 0 mm 2 mps 741 mmHg 88%
    07:00 +15°C° 0 mm 2 mps 741 mmHg 84%
    08:00 +15°C° 0,2 mm 2 mps 741 mmHg 79%
    09:00 +16°C° 0,2 mm 2 mps 741 mmHg 74%
    10:00 +17°C° 0,2 mm 2 mps 741 mmHg 69%
    11:00 +18°C° 0,2 mm 2 mps 742 mmHg 66%
    12:00 +19°C° 0,2 mm 2 mps 742 mmHg 62%
    13:00 +20°C° 0,2 mm 2 mps 742 mmHg 59%
    14:00 +20°C° 0,3 mm 2 mps 742 mmHg 60%
    15:00 +20°C° 0,3 mm 2 mps 742 mmHg 61%
    16:00 +20°C° 0,3 mm 2 mps 741 mmHg 62%
    17:00 +19°C° 0,2 mm 2 mps 741 mmHg 67%
    18:00 +18°C° 0,2 mm 1 mps 741 mmHg 72%
    19:00 +16°C° 0,2 mm 1 mps 741 mmHg 77%
    20:00 +15°C° 0,1 mm 1 mps 742 mmHg 80%
    21:00 +14°C° 0,1 mm 1 mps 742 mmHg 82%
    22:00 +13°C° 0,1 mm 1 mps 742 mmHg 84%
    23:00 +13°C° 0 mm 1 mps 742 mmHg 85%

    Mañana, 26 Junio, Martes

    Tiempo Temperatura Precipitaciones Viento Presión Humedad
    00:00 +13°C° 0 mm 1 mps 742 mmHg 86%
    01:00 +13°C° 0 mm 1 mps 742 mmHg 87%
    02:00 +12°C° 0 mm 1 mps 742 mmHg 88%
    03:00 +12°C° 0 mm 1 mps 742 mmHg 89%
    04:00 +12°C° 0 mm 1 mps 742 mmHg 90%
    05:00 +13°C° 0,1 mm 1 mps 742 mmHg 85%
    06:00 +15°C° 0,1 mm 1 mps 742 mmHg 80%
    07:00 +18°C° 0,1 mm 1 mps 742 mmHg 75%
    08:00 +18°C° 0,5 mm 2 mps 742 mmHg 72%
    09:00 +18°C° 0,5 mm 2 mps 742 mmHg 70%
    10:00 +19°C° 0,5 mm 3 mps 742 mmHg 67%
    11:00 +20°C° 0,4 mm 2 mps 742 mmHg 64%
    12:00 +20°C° 0,4 mm 2 mps 741 mmHg 61%
    13:00 +21°C° 0,4 mm 2 mps 741 mmHg 58%
    14:00 +21°C° 0,3 mm 2 mps 741 mmHg 57%
    15:00 +21°C° 0,3 mm 2 mps 741 mmHg 57%
    16:00 +22°C° 0,3 mm 1 mps 741 mmHg 56%
    17:00 +21°C° 0,2 mm 1 mps 741 mmHg 64%
    18:00 +20°C° 0,2 mm 1 mps 741 mmHg 71%
    19:00 +18°C° 0,2 mm 1 mps 741 mmHg 78%
    20:00 +16°C° 0,2 mm 1 mps 741 mmHg 82%
    21:00 +15°C° 0,2 mm 1 mps 741 mmHg 85%
    22:00 +14°C° 0,2 mm 1 mps 741 mmHg 89%
    23:00 +13°C° 0,1 mm 1 mps 741 mmHg 90%

    Pasado mañana, 27 Junio, Miércoles

    Tiempo Temperatura Precipitaciones Viento Presión Humedad
    00:00 +13°C° 0,1 mm 1 mps 741 mmHg 90%
    01:00 +12°C° 0,1 mm 1 mps 741 mmHg 91%
    02:00 +11°C° 0 mm 0 mps 741 mmHg 92%
    03:00 +11°C° 0 mm 0 mps 741 mmHg 92%
    04:00 +11°C° 0 mm 0 mps 741 mmHg 92%
    05:00 +13°C° 0 mm 1 mps 741 mmHg 90%
    06:00 +15°C° 0 mm 1 mps 741 mmHg 87%
    07:00 +16°C° 0 mm 2 mps 741 mmHg 84%
    08:00 +17°C° 0,3 mm 2 mps 741 mmHg 84%
    09:00 +18°C° 0,3 mm 3 mps 741 mmHg 83%
    10:00 +18°C° 0,3 mm 4 mps 741 mmHg 83%
    11:00 +19°C° 0,6 mm 4 mps 741 mmHg 82%
    12:00 +20°C° 0,6 mm 4 mps 741 mmHg 81%
    13:00 +20°C° 0,6 mm 4 mps 741 mmHg 80%
    14:00 +21°C° 0,7 mm 4 mps 741 mmHg 78%
    15:00 +21°C° 0,7 mm 5 mps 740 mmHg 77%
    16:00 +22°C° 0,7 mm 5 mps 740 mmHg 75%
    17:00 +21°C° 0,2 mm 4 mps 740 mmHg 77%
    18:00 +20°C° 0,2 mm 4 mps 740 mmHg 80%
    19:00 +20°C° 0,2 mm 4 mps 739 mmHg 82%
    20:00 +19°C° 0,1 mm 4 mps 739 mmHg 83%
    21:00 +19°C° 0,1 mm 4 mps 738 mmHg 85%
    22:00 +18°C° 0,1 mm 4 mps 738 mmHg 86%
    23:00 +17°C° 1,8 mm 5 mps 737 mmHg 89%

    28 Junio, Jueves

    Tiempo Temperatura Precipitaciones Viento Presión Humedad
    00:00 +17°C° 1,8 mm 6 mps 737 mmHg 92%
    01:00 +17°C° 1,8 mm 7 mps 736 mmHg 94%
    02:00 +19°C° 0,5 mm 6 mps 736 mmHg 95%
    03:00 +19°C° 0,5 mm 6 mps 735 mmHg 95%
    04:00 +19°C° 0,5 mm 6 mps 735 mmHg 96%
    05:00 +19°C° 0,5 mm 6 mps 735 mmHg 95%
    06:00 +20°C° 0,5 mm 6 mps 735 mmHg 94%
    07:00 +20°C° 0,5 mm 5 mps 736 mmHg 94%
    08:00 +20°C° 0,2 mm 5 mps 736 mmHg 94%
    09:00 +20°C° 0,2 mm 5 mps 736 mmHg 94%
    10:00 +20°C° 0,2 mm 5 mps 736 mmHg 94%
    11:00 +21°C° 0,1 mm 5 mps 736 mmHg 93%
    12:00 +21°C° 0,1 mm 5 mps 736 mmHg 91%
    13:00 +22°C° 0,1 mm 5 mps 736 mmHg 90%
    14:00 +22°C° 0,4 mm 4 mps 736 mmHg 89%
    15:00 +23°C° 0,4 mm 4 mps 736 mmHg 88%
    16:00 +23°C° 0,4 mm 4 mps 736 mmHg 86%
    17:00 +23°C° 0,3 mm 4 mps 736 mmHg 88%
    18:00 +22°C° 0,3 mm 3 mps 736 mmHg 91%
    19:00 +22°C° 0,3 mm 3 mps 736 mmHg 93%
    20:00 +21°C° 0,6 mm 2 mps 736 mmHg 94%
    21:00 +20°C° 0,6 mm 2 mps 736 mmHg 95%
    22:00 +20°C° 0,6 mm 2 mps 736 mmHg 96%
    23:00 +19°C° 0 mm 2 mps 736 mmHg 96%

    29 Junio, Viernes

    Tiempo Temperatura Precipitaciones Viento Presión Humedad
    00:00 +20°C° 0 mm 1 mps 736 mmHg 96%
    01:00 +19°C° 0 mm 1 mps 736 mmHg 97%
    02:00 +19°C° 0 mm 1 mps 735 mmHg 97%
    03:00 +19°C° 0 mm 1 mps 735 mmHg 98%
    04:00 +19°C° 0 mm 1 mps 735 mmHg 98%
    05:00 +19°C° 0 mm 2 mps 735 mmHg 96%
    06:00 +20°C° 0 mm 2 mps 735 mmHg 95%
    07:00 +21°C° 0 mm 2 mps 736 mmHg 93%
    08:00 +21°C° 0,1 mm 2 mps 735 mmHg 90%
    09:00 +23°C° 0,1 mm 2 mps 735 mmHg 86%
    10:00 +24°C° 0,1 mm 2 mps 735 mmHg 83%
    11:00 +25°C° 0,5 mm 2 mps 735 mmHg 78%
    12:00 +26°C° 0,5 mm 2 mps 735 mmHg 74%
    13:00 +27°C° 0,5 mm 3 mps 735 mmHg 69%
    14:00 +28°C° 0,4 mm 3 mps 735 mmHg 68%
    15:00 +28°C° 0,4 mm 3 mps 735 mmHg 67%
    16:00 +28°C° 0,4 mm 3 mps 734 mmHg 66%
    17:00 +27°C° 0,4 mm 3 mps 734 mmHg 72%
    18:00 +26°C° 0,4 mm 2 mps 734 mmHg 78%
    19:00 +25°C° 0,4 mm 2 mps 734 mmHg 84%
    20:00 +23°C° 0,5 mm 2 mps 734 mmHg 87%
    21:00 +21°C° 0,5 mm 2 mps 735 mmHg 90%
    22:00 +20°C° 0,5 mm 2 mps 735 mmHg 93%
    23:00 +20°C° 0,1 mm 2 mps 735 mmHg 94%

    30 Junio, Sábado

    Tiempo Temperatura Precipitaciones Viento Presión Humedad
    00:00 +19°C° 0,1 mm 2 mps 735 mmHg 95%
    01:00 +19°C° 0,1 mm 3 mps 735 mmHg 96%
    02:00 +19°C° 0,1 mm 3 mps 736 mmHg 96%
    03:00 +18°C° 0,1 mm 3 mps 736 mmHg 96%
    04:00 +18°C° 0,1 mm 4 mps 737 mmHg 95%
    05:00 +17°C° 0,1 mm 4 mps 737 mmHg 94%
    06:00 +17°C° 0,1 mm 4 mps 738 mmHg 93%
    07:00 +17°C° 0,1 mm 4 mps 738 mmHg 92%
    08:00 +17°C° 0 mm 3 mps 739 mmHg 88%
    09:00 +17°C° 0 mm 3 mps 739 mmHg 84%
    10:00 +18°C° 0 mm 3 mps 740 mmHg 80%
    11:00 +19°C° 0 mm 4 mps 740 mmHg 71%
    12:00 +20°C° 0 mm 4 mps 740 mmHg 62%
    13:00 +21°C° 0 mm 4 mps 740 mmHg 53%
    14:00 +21°C° 0 mm 5 mps 740 mmHg 51%
    15:00 +22°C° 0 mm 5 mps 740 mmHg 50%
    16:00 +22°C° 0 mm 5 mps 740 mmHg 48%
    17:00 +20°C° 0 mm 4 mps 741 mmHg 55%
    18:00 +19°C° 0 mm 4 mps 741 mmHg 61%
    19:00 +18°C° 0 mm 3 mps 741 mmHg 68%
    20:00 +16°C° 0 mm 2 mps 741 mmHg 72%
    21:00 +15°C° 0 mm 2 mps 742 mmHg 76%
    22:00 +13°C° 0 mm 2 mps 742 mmHg 81%
    23:00 +13°C° 0 mm 2 mps 743 mmHg 82%
    Mostrar más